sat.trackr.live / text

‹ back to catalog

COSMOS 2486

NORAD 39177 · 2013-028A

PAYLOAD ACTIVE UNKNOWN

§ Identity

Operator
Country
CIS
Launch date
2013-06-07
Launch site
PLMSC
Launch vehicle
Mass (kg)
RCS (m²)
16.05

External: N2YO · Heavens-Above · Gunter

§ Orbital elements

Epoch: 2026-09-20T04:19:00.187392Z

Period
98.89 min
Inclination
98.0266°
Eccentricity
0.0012329
Mean motion
14.56226636 rev/d
Perigee alt
696.7 km
Apogee alt
714.1 km
Semi-major
7,083.5 km
B*
2.8198e-5
RAAN
226.9396°
Arg perigee
80.6785°
Mean anomaly
279.5807°
Rev number
70,520

§ Raw data

COSMOS 24861 39177U 13028A   26263.17986328  .00000081  00000+0  28198-4 0  99942 39177  98.0266 226.9396 0012329  80.6785 279.5807 14.56226636705201

JSON: /api/v1/satellites/39177 · /tle

For live sub-satellite position, see the globe view (requires WebGL).

§ Visibility from observer

Set your observer location to see the next 7 days of passes ≥ 10°. The values pass through the URL so the page stays shareable.

No JS? Fill the form by hand. The geolocation button needs JavaScript.